Regional Weather Roundup
Issued by NWS

Home | Current Version | Previous Version | Graphics & Text | Print | Product List | Glossary On
Versions: 1 2 3 4 5 6 7 8 9 10 11 12 13 14 15 16 17 18 19 20 21 22 23 24 25 26 27 28 29 30 31 32 33 34 35 36 37 38 39 40 41 42 43 44 45 46 47 48 49 50
000
ASUS45 KSLC 262010
RWRUT

UTAH REGIONAL WEATHER ROUNDUP
NATIONAL WEATHER SERVICE SALT LAKE CITY UT
200 PM MDT WED JUL 26 2017

UTZ001>011-023>025-262100-

NORTHERN UTAH

CITY           SKY/WX    TMP DP  RH WIND       PRES   REMARKS
BRIGHAM CITY     N/A     83  52  34 S7        30.19F
HILL AFB       MOSUNNY   84  55  37 SW6       30.23F
LOGAN            N/A     81  56  42 VRB3      30.21F
OGDEN            N/A     83  57  41 VRB3      30.19F
SALT LAKE CITY   N/A     82  59  45 VRB5      30.18F
TOOELE VALLEY    N/A     84  59  42 N12       30.19F
WENDOVER         N/A     85  53  33 SE8       30.18F
HEBER CITY       N/A     81  54  39 NW8       30.25S
WEST JORDAN    CLOUDY    73  67  80 W7        30.22S

$$

UTZ011>015-024>027-262100-

CENTRAL/NORTHEAST UTAH

CITY           SKY/WX    TMP DP  RH WIND       PRES   REMARKS
PROVO AIRPORT    N/A     80  60  50 CALM      30.21F HAZE
MOAB/CANYONLAN   N/A     84  62  47 CALM      30.18F
DELTA            N/A     84  48  28 W7        30.21F
PRICE            N/A     78  59  51 MISG      30.28F
ROOSEVELT      CLOUDY    81  55  41 E6        30.24F
VERNAL         CLOUDY    79  60  52 CALM      30.23F

$$

UTZ013>016-019>022-027-262100-

SOUTHERN UTAH

CITY           SKY/WX    TMP DP  RH WIND       PRES   REMARKS
BRYCE CANYON   LGT RAIN  71  57  61 S8        30.42F
CEDAR CITY       N/A     82  58  43 NW7       30.26F
MILFORD          N/A     87  52  29 S9        30.21F
ST GEORGE        N/A     87  63  44 CALM      30.11F
HANKSVILLE       N/A     86  59  39 S6        30.20F
BLANDING         N/A     82  54  38 CALM      30.35F

$$

REGIONAL REPORTS     COLORADO/ARIZONA

CITY           SKY/WX    TMP DP  RH WIND       PRES   REMARKS
CRAIG, CO      CLOUDY    80  55  42 NW6       30.28F
GRAND JUNCTION SUNNY     84  61  45 VRB6      30.20F
RIFLE, CO      CLOUDY    77  63  61 VRB3      30.26F
MONTROSE, CO   SUNNY     81  57  43 VRB3      30.27F
CORTEZ, CO     MOSUNNY   81  56  42 VRB5      30.28F
COLORADO CITY    N/A     84  61  45 N5        30.28F
PAGE, AZ         N/A     86  59  39 CALM      30.18
GRAND CANYON     N/A     76  54  46 SW9       30.37F
KINGMAN, AZ      N/A     91  59  33 VRB3      30.14F HX  90
FLAGSTAFF, AZ    N/A     76  54  46 S10       30.39F

$$

REGIONAL REPORTS    NEVADA/IDAHO/WYOMING

CITY           SKY/WX    TMP DP  RH WIND       PRES   REMARKS
LAS VEGAS, NV    N/A     92  64  39 VRB3      30.04F HX  93
ELY, NY          N/A     78  49  35 MISG      30.29F
ELKO, NV         N/A     88  43  20 VRB3      30.18F
POCATELLO, ID  MOSUNNY   80  58  46 CALM      30.20F
BURLEY, ID       N/A     84  55  36 NE7       30.15F
FORT BRIDGER,  CLOUDY    74  50  43 N9G17     30.38S
EVANSTON, WY   CLOUDY    72  54  53 W10       30.36F
ROCK SPRINGS,  PTSUNNY   76  48  37 W7        30.32F
KEMMERER, WY   RAIN      64  55  72 S6        30.40R

$$



USA.gov is the U.S. government's official web portal to all federal, state and local government web resources and services.